timestamp,surface_pressure_avg,surface_temp_avg,battery_voltage,lat,long
2019-05-17 00:00:00+00:00,318.0129,3.07,12.97,47.84626,-54.09684
2019-05-17 00:10:00+00:00,312.1147,3.1,12.81,47.84626,-54.09684
2019-05-17 00:20:00+00:00,308.6447,3.1,12.89,47.84626,-54.09684
2019-05-17 00:30:00+00:00,295.8264,3.15,12.97,47.84626,-54.09684
2019-05-17 00:40:00+00:00,280.4548,3.2,12.97,47.84626,-54.09684
2019-05-17 00:50:00+00:00,276.6531,3.29,12.97,47.84626,-54.09684
2019-05-17 01:00:00+00:00,271.6731,3.3,12.89,47.84626,-54.09684
2019-05-17 01:10:00+00:00,259.8331,3.3,12.81,47.84626,-54.09684
2019-05-17 01:20:00+00:00,251.4281,3.3,12.89,47.84626,-54.09684
2019-05-17 01:30:00+00:00,247.5764,3.3,12.89,47.84626,-54.09684
2019-05-17 01:40:00+00:00,239.2864,3.3,12.89,47.84626,-54.09684
2019-05-17 01:50:00+00:00,226.8131,3.32,12.97,47.84626,-54.09684
2019-05-17 02:00:00+00:00,217.8997,3.33,12.89,47.84626,-54.09684
2019-05-17 02:10:00+00:00,211.5514,3.3,12.81,47.84626,-54.09684
2019-05-17 02:20:00+00:00,205.9714,3.3,12.89,47.84626,-54.09684
2019-05-17 02:30:00+00:00,203.2748,3.3,12.89,47.84626,-54.09684
2019-05-17 02:40:00+00:00,199.5548,3.3,12.89,47.84626,-54.09684
2019-05-17 02:50:00+00:00,192.5848,3.29,12.89,47.84626,-54.09684
2019-05-17 03:00:00+00:00,190.3181,3.27,12.81,47.84626,-54.09684
2019-05-17 03:10:00+00:00,190.6831,3.24,12.73,47.84626,-54.09684
2019-05-17 03:20:00+00:00,183.5348,3.22,12.89,47.84626,-54.09684
2019-05-17 03:30:00+00:00,178.0898,3.23,12.89,47.84626,-54.09684
2019-05-17 03:40:00+00:00,182.6315,3.22,12.89,47.84626,-54.09684
2019-05-17 03:50:00+00:00,181.8715,3.2,12.89,47.84626,-54.09684
2019-05-17 04:00:00+00:00,173.3765,3.2,12.81,47.84626,-54.09684
2019-05-17 04:10:00+00:00,175.0215,3.2,12.73,47.84626,-54.09684
2019-05-17 04:20:00+00:00,182.4482,3.2,12.81,47.84626,-54.09684
2019-05-17 04:30:00+00:00,184.1148,3.2,12.81,47.84626,-54.09684
2019-05-17 04:40:00+00:00,181.2932,3.2,12.89,47.84626,-54.09684
2019-05-17 04:50:00+00:00,183.4481,3.21,12.89,47.84626,-54.09684
2019-05-17 05:00:00+00:00,191.1948,3.2,12.81,47.84626,-54.09684
2019-05-17 05:10:00+00:00,190.9531,3.21,12.73,47.84626,-54.09684
2019-05-17 05:20:00+00:00,192.2998,3.22,12.81,47.84626,-54.09684
2019-05-17 05:30:00+00:00,201.3181,3.22,12.81,47.84626,-54.09684
2019-05-17 05:40:00+00:00,203.2114,3.21,12.81,47.84626,-54.09684
2019-05-17 05:50:00+00:00,204.2631,3.21,12.81,47.84626,-54.09684
2019-05-17 06:00:00+00:00,210.5448,3.2,12.81,47.84626,-54.09684
2019-05-17 06:10:00+00:00,214.3631,3.22,12.73,47.84626,-54.09684
2019-05-17 06:20:00+00:00,215.0681,3.25,12.81,47.84626,-54.09684
2019-05-17 06:30:00+00:00,221.8248,3.26,12.81,47.84626,-54.09684
2019-05-17 06:40:00+00:00,227.0864,3.25,12.81,47.84626,-54.09684
2019-05-17 06:50:00+00:00,227.9314,3.26,12.81,47.84626,-54.09684
2019-05-17 07:00:00+00:00,232.3214,3.26,12.73,47.84626,-54.09684
2019-05-17 07:10:00+00:00,243.0548,3.25,12.65,47.84626,-54.09684
2019-05-17 07:20:00+00:00,253.9547,3.22,12.73,47.84626,-54.09684
2019-05-17 07:30:00+00:00,261.2814,3.2,12.73,47.84626,-54.09684
2019-05-17 07:40:00+00:00,266.013,3.2,12.81,47.84626,-54.09684
2019-05-17 07:50:00+00:00,273.5098,3.2,12.81,47.84626,-54.09684
2019-05-17 08:00:00+00:00,282.7531,3.2,12.73,47.84626,-54.09684
2019-05-17 08:10:00+00:00,285.7397,3.2,12.65,47.84626,-54.09684
2019-05-17 08:20:00+00:00,289.1731,3.2,12.73,47.84626,-54.09684
2019-05-17 08:30:00+00:00,301.0814,3.2,12.73,47.84626,-54.09684
2019-05-17 08:40:00+00:00,308.8163,3.2,12.73,47.84626,-54.09684
2019-05-17 08:50:00+00:00,310.3047,3.2,12.81,47.84626,-54.09684
2019-05-17 09:00:00+00:00,314.973,3.2,12.73,47.84626,-54.09684
2019-05-17 09:10:00+00:00,323.3929,3.2,12.65,47.84626,-54.09684
2019-05-17 09:20:00+00:00,330.2664,3.2,12.73,47.84626,-54.09684
2019-05-17 09:30:00+00:00,334.9563,3.19,12.81,47.84626,-54.09684
2019-05-17 09:40:00+00:00,340.9464,3.2,12.81,47.84626,-54.09684
2019-05-17 09:50:00+00:00,344.6846,3.2,12.81,47.84626,-54.09684
2019-05-17 10:00:00+00:00,349.8796,3.2,12.89,47.84626,-54.09684
2019-05-17 10:10:00+00:00,349.6262,3.2,12.89,47.84626,-54.09684
2019-05-17 10:20:00+00:00,347.6229,3.2,12.97,47.84626,-54.09684
2019-05-17 10:30:00+00:00,349.873,3.2,12.97,47.84626,-54.09684
2019-05-17 10:40:00+00:00,354.4713,3.1,13.05,47.84626,-54.09684
2019-05-17 10:50:00+00:00,353.4363,3.02,13.05,47.84626,-54.09684
2019-05-17 11:00:00+00:00,351.1896,3.06,13.05,47.84626,-54.09684
2019-05-17 11:10:00+00:00,349.7646,3.01,12.97,47.84626,-54.09684
2019-05-17 11:20:00+00:00,348.533,3.0,13.05,47.84626,-54.09684
2019-05-17 11:30:00+00:00,344.548,3.0,13.05,47.84626,-54.09684
2019-05-17 11:40:00+00:00,344.1146,3.0,13.21,47.84626,-54.09684
2019-05-17 11:50:00+00:00,341.2679,3.0,13.29,47.84626,-54.09684
2019-05-17 12:00:00+00:00,335.4597,3.0,13.29,47.84626,-54.09684
2019-05-17 12:10:00+00:00,327.6647,3.04,13.21,47.84626,-54.09684
2019-05-17 12:20:00+00:00,321.4763,3.08,13.37,47.84626,-54.09684
2019-05-17 12:30:00+00:00,313.7946,3.1,13.44,47.84626,-54.09684
2019-05-17 12:40:00+00:00,308.2563,3.1,14.0,47.84626,-54.09684
2019-05-17 12:50:00+00:00,303.313,3.1,14.32,47.84626,-54.09684
2019-05-17 13:00:00+00:00,294.6197,3.1,14.48,47.84626,-54.09684
2019-05-17 13:10:00+00:00,281.1264,3.1,14.56,47.84626,-54.09684
2019-05-17 13:20:00+00:00,270.2047,3.1,14.72,47.84626,-54.09684
2019-05-17 13:30:00+00:00,264.6347,3.1,14.56,47.84626,-54.09684
2019-05-17 13:40:00+00:00,255.438,3.13,14.56,47.84626,-54.09684
2019-05-17 13:50:00+00:00,244.0731,3.18,14.64,47.84626,-54.09684
2019-05-17 14:00:00+00:00,239.4431,3.2,14.48,47.84626,-54.09684
2019-05-17 14:10:00+00:00,232.0847,3.2,14.56,47.84626,-54.09684
2019-05-17 14:20:00+00:00,220.0898,3.27,14.56,47.84626,-54.09684
2019-05-17 14:30:00+00:00,211.2431,3.3,14.56,47.84626,-54.09684
2019-05-17 14:40:00+00:00,205.8931,3.3,14.96,47.84626,-54.09684
2019-05-17 14:50:00+00:00,196.7948,3.37,14.8,47.84626,-54.09684
2019-05-17 15:00:00+00:00,189.4965,3.4,14.88,47.84626,-54.09684
2019-05-17 15:10:00+00:00,187.1331,3.4,14.8,47.84626,-54.09684
2019-05-17 15:20:00+00:00,180.9781,3.4,14.96,47.84626,-54.09684
2019-05-17 15:30:00+00:00,176.5081,3.4,14.8,47.84626,-54.09684
2019-05-17 15:40:00+00:00,175.5848,3.48,14.72,47.84626,-54.09684
2019-05-17 15:50:00+00:00,174.0398,3.5,14.72,47.84626,-54.09684
2019-05-17 16:00:00+00:00,175.8265,3.5,14.72,47.84626,-54.09684
2019-05-17 16:10:00+00:00,176.6531,3.56,14.4,47.84626,-54.09684
2019-05-17 16:20:00+00:00,175.3165,3.6,14.4,47.84626,-54.09684
2019-05-17 16:30:00+00:00,177.8248,3.64,14.32,47.84626,-54.09684
2019-05-17 16:40:00+00:00,181.3898,3.69,14.48,47.84626,-54.09684
2019-05-17 16:50:00+00:00,180.7065,3.7,14.48,47.84626,-54.09684
2019-05-17 17:00:00+00:00,180.2548,3.7,14.32,47.84626,-54.09684
2019-05-17 17:10:00+00:00,183.7915,3.7,14.16,47.84626,-54.09684
2019-05-17 17:20:00+00:00,185.8148,3.7,14.24,47.84626,-54.09684
2019-05-17 17:30:00+00:00,187.4615,3.7,14.48,47.84626,-54.09684
2019-05-17 17:40:00+00:00,194.5832,3.69,14.56,47.84626,-54.09684
2019-05-17 17:50:00+00:00,201.0565,3.68,14.48,47.84626,-54.09684
2019-05-17 18:00:00+00:00,204.3131,3.68,14.4,47.84626,-54.09684
2019-05-17 18:10:00+00:00,208.0648,3.69,14.4,47.84626,-54.09684
2019-05-17 18:20:00+00:00,210.1065,3.7,14.56,47.84626,-54.09684
2019-05-17 18:30:00+00:00,216.7031,3.7,14.4,47.84626,-54.09684
2019-05-17 18:40:00+00:00,226.2648,3.68,14.32,47.84626,-54.09684
2019-05-17 18:50:00+00:00,227.3248,3.6,14.4,47.84626,-54.09684
2019-05-17 19:00:00+00:00,228.2597,3.59,14.32,47.84626,-54.09684
2019-05-17 19:10:00+00:00,237.2331,3.55,14.24,47.84626,-54.09684
2019-05-17 19:20:00+00:00,246.1698,3.53,14.32,47.84626,-54.09684
2019-05-17 19:30:00+00:00,252.0931,3.5,14.32,47.84626,-54.09684
2019-05-17 19:40:00+00:00,260.2631,3.5,14.32,47.84626,-54.09684
2019-05-17 19:50:00+00:00,272.6747,3.4,14.4,47.84626,-54.09684
2019-05-17 20:00:00+00:00,277.3014,3.4,14.32,47.84626,-54.09684
2019-05-17 20:10:00+00:00,281.8714,3.4,14.16,47.84626,-54.09684
2019-05-17 20:20:00+00:00,291.7347,3.4,14.24,47.84626,-54.09684
2019-05-17 20:30:00+00:00,301.7463,3.39,14.24,47.84626,-54.09684
2019-05-17 20:40:00+00:00,308.983,3.33,14.24,47.84626,-54.09684
2019-05-17 20:50:00+00:00,316.6413,3.3,14.24,47.84626,-54.09684
2019-05-17 21:00:00+00:00,327.3181,3.3,14.08,47.84626,-54.09684
2019-05-17 21:10:00+00:00,334.2263,3.3,14.0,47.84626,-54.09684
2019-05-17 21:20:00+00:00,340.3246,3.3,14.0,47.84626,-54.09684
2019-05-17 21:30:00+00:00,347.8897,3.3,14.0,47.84626,-54.09684
2019-05-17 21:40:00+00:00,354.5129,3.3,14.08,47.84626,-54.09684
2019-05-17 21:50:00+00:00,356.5746,3.3,14.08,47.84626,-54.09684
2019-05-17 22:00:00+00:00,360.1896,3.3,14.0,47.84626,-54.09684
2019-05-17 22:10:00+00:00,370.5529,3.3,13.84,47.84626,-54.09684
2019-05-17 22:20:00+00:00,371.298,3.3,13.84,47.84626,-54.09684
2019-05-17 22:30:00+00:00,368.5095,3.3,13.76,47.84626,-54.09684
2019-05-17 22:40:00+00:00,374.0379,3.3,13.68,47.84626,-54.09684
2019-05-17 22:50:00+00:00,378.0679,3.3,13.68,47.84626,-54.09684
2019-05-17 23:00:00+00:00,373.123,3.3,13.53,47.84626,-54.09684
2019-05-17 23:10:00+00:00,369.3679,3.3,13.37,47.84626,-54.09684
2019-05-17 23:20:00+00:00,371.8179,3.3,13.37,47.84626,-54.09684
2019-05-17 23:30:00+00:00,366.9429,3.3,13.29,47.84626,-54.09684
2019-05-17 23:40:00+00:00,358.2563,3.36,13.29,47.84626,-54.09684
2019-05-17 23:50:00+00:00,355.4713,3.39,13.29,47.84626,-54.09684
